Clarksdale Fletcher Field Air, MS

11:19 AM CDT on October 14, 2019 (GMT -0500)
Fletcher

Weather History for KCKM - September, 2019

Change the Weather History Date:

Monday, September 16, 2019

  Actual Average (KUOX) Record (KUOX)
Temperature  
Mean Temperature 82 °F -  
Max Temperature 96 °F 83 °F 99 °F (1954)
Min Temperature 69 °F 61 °F 39 °F (1961)
Cooling Degree Days 18    
Growing Degree Days 32 (Base 50)    
Moisture  
Dew Point 70 °F    
Average Humidity 68    
Maximum Humidity 100    
Minimum Humidity 34    
Precipitation  
Precipitation 0.00 in - - ()
Sea Level Pressure  
Sea Level Pressure 30.05 in    
Wind  
Wind Speed 1 mph ()    
Max Wind Speed 8 mph    
Max Gust Speed 13 mph    
Visibility 9.9 miles    
Events      
Averages and records for this station are not official NWS values.
T = Trace of Precipitation, MM = Missing Value Source: Averaged Metar Reports

Daily Weather History Graph

Daily Weather History Graph

Search for Another Location

Airport or City:

Astronomy

Sep. 16, 2019 Rise Set
Actual Time 6:45 AM CDT 7:07 PM CDT
Civil Twilight 6:20 AM CDT 7:32 PM CDT
Nautical Twilight 5:51 AM CDT 8:02 PM CDT
Astronomical Twilight 5:21 AM CDT 8:31 PM CDT
Moon 8:47 PM CDT (9/16) 8:48 AM CDT (9/16)
Length of Visible Light 13h 12m
Length of Day
12h 21m
Waning Gibbous, 94% of the Moon is Illuminated
Sep 16
Waning Gibbous
Sep 21
Last Quarter
Sep 28
New
Oct 5
First Quarter
Oct 13
Full

Hourly Weather History & Observations

Time (CDT) Temp. Heat Index Dew Point Humidity Pressure Visibility Wind Dir Wind Speed Gust Speed Precip Events Conditions
12:15 AM 73.4 °F - 73.4 °F 100% 30.06 in 10.0 mi Calm Calm - N/A   Unknown
12:35 AM 73.4 °F - 73.4 °F 100% 30.06 in 10.0 mi Calm Calm - N/A   Unknown
12:55 AM 73.4 °F - 73.4 °F 100% 30.06 in 10.0 mi Calm Calm - N/A   Unknown
1:15 AM 73.4 °F - 71.6 °F 94% 30.06 in 10.0 mi Calm Calm - N/A   Unknown
1:35 AM 71.6 °F - 71.6 °F 100% 30.06 in 10.0 mi Calm Calm - N/A   Unknown
1:55 AM 73.4 °F - 73.4 °F 100% 30.06 in 10.0 mi Calm Calm - N/A   Unknown
2:15 AM 71.6 °F - 71.6 °F 100% 30.06 in 10.0 mi Calm Calm - N/A   Unknown
2:35 AM 71.6 °F - 71.6 °F 100% 30.06 in 10.0 mi Calm Calm - N/A   Unknown
2:55 AM 71.6 °F - 71.6 °F 100% 30.06 in 10.0 mi Calm Calm - N/A   Unknown
3:15 AM 71.6 °F - 71.6 °F 100% 30.06 in 10.0 mi Calm Calm - N/A   Unknown
3:35 AM 71.6 °F - 71.6 °F 100% 30.06 in 10.0 mi Calm Calm - N/A   Unknown
3:55 AM 71.6 °F - 71.6 °F 100% 30.06 in 10.0 mi Calm Calm - N/A   Unknown
4:15 AM 69.8 °F - 69.8 °F 100% 30.06 in 10.0 mi Calm Calm - N/A   Unknown
5:15 AM 69.8 °F - 69.8 °F 100% 30.07 in 10.0 mi Calm Calm - N/A   Unknown
5:35 AM 69.8 °F - 69.8 °F 100% 30.07 in 10.0 mi Calm Calm - N/A   Unknown
6:15 AM 69.8 °F - 69.8 °F 100% 30.08 in 10.0 mi Calm Calm - N/A   Unknown
6:35 AM 69.8 °F - 69.8 °F 100% 30.09 in 10.0 mi Calm Calm - N/A   Unknown
6:55 AM 69.8 °F - 69.8 °F 100% 30.09 in 9.0 mi Calm Calm - N/A   Unknown
7:15 AM 71.6 °F - 71.6 °F 100% 30.10 in 9.0 mi Calm Calm - N/A   Unknown
7:35 AM 71.6 °F - 71.6 °F 100% 30.10 in 9.0 mi Calm Calm - N/A   Unknown
7:55 AM 75.2 °F - 75.2 °F 100% 30.11 in 9.0 mi Calm Calm - N/A   Unknown
9:15 AM 86.0 °F 93.4 °F 73.4 °F 66% 30.11 in 10.0 mi ENE 5.8 mph - N/A   Unknown
9:35 AM 87.8 °F 93.8 °F 71.6 °F 58% 30.11 in 10.0 mi ENE 5.8 mph - N/A   Unknown
9:55 AM 89.6 °F 96.2 °F 71.6 °F 55% 30.11 in 10.0 mi Calm Calm - N/A   Unknown
10:15 AM 89.6 °F 96.2 °F 71.6 °F 55% 30.11 in 10.0 mi East 5.8 mph - N/A   Unknown
10:35 AM 91.4 °F 98.4 °F 71.6 °F 52% 30.11 in 10.0 mi East 5.8 mph - N/A   Unknown
10:55 AM 91.4 °F 98.4 °F 71.6 °F 52% 30.10 in 10.0 mi ENE 8.1 mph - N/A   Unknown
11:15 AM 91.4 °F 98.4 °F 71.6 °F 52% 30.10 in 10.0 mi East 4.6 mph - N/A   Unknown
11:35 AM 93.2 °F 100.5 °F 71.6 °F 49% 30.10 in 10.0 mi East 5.8 mph - N/A   Unknown
11:55 AM 93.2 °F 98.8 °F 69.8 °F 46% 30.10 in 10.0 mi East 5.8 mph 11.5 mph N/A   Unknown
12:15 PM 93.2 °F 98.8 °F 69.8 °F 46% 30.09 in 10.0 mi Calm Calm 11.5 mph N/A   Unknown
12:55 PM 95.0 °F 99.5 °F 68.0 °F 41% 30.08 in 10.0 mi Variable 5.8 mph 11.5 mph N/A   Unknown
1:15 PM 95.0 °F 98.5 °F 66.2 °F 39% 30.07 in 10.0 mi ENE 3.5 mph - N/A   Unknown
1:35 PM 93.2 °F 96.2 °F 66.2 °F 41% 30.06 in 10.0 mi Variable 3.5 mph 12.7 mph N/A   Unknown
1:55 PM 95.0 °F 99.5 °F 68.0 °F 41% 30.05 in 10.0 mi East 8.1 mph - N/A   Unknown
2:15 PM 93.2 °F 97.7 °F 68.0 °F 44% 30.05 in 10.0 mi ENE 4.6 mph - N/A   Unknown
2:35 PM 96.8 °F 101.8 °F 68.0 °F 39% 30.03 in 10.0 mi NNE 3.5 mph - N/A   Unknown
2:55 PM 96.8 °F 100.7 °F 66.2 °F 37% 30.03 in 10.0 mi Calm Calm - N/A   Unknown
3:15 PM 95.0 °F 97.0 °F 64.4 °F 36% 30.03 in 10.0 mi ESE 4.6 mph - N/A   Unknown
3:35 PM 96.8 °F 99.0 °F 64.4 °F 34% 30.02 in 10.0 mi Calm Calm - N/A   Unknown
3:55 PM 96.8 °F 100.7 °F 66.2 °F 37% 30.02 in 10.0 mi Calm Calm - N/A   Unknown
4:15 PM 95.0 °F 97.0 °F 64.4 °F 36% 30.01 in 10.0 mi Calm Calm - N/A   Unknown
4:35 PM 96.8 °F 99.0 °F 64.4 °F 34% 30.00 in 10.0 mi Calm Calm - N/A   Unknown
4:55 PM 96.8 °F 99.0 °F 64.4 °F 34% 30.00 in 10.0 mi Calm Calm - N/A   Unknown
5:15 PM 95.0 °F 98.5 °F 66.2 °F 39% 30.00 in 10.0 mi Calm Calm - N/A   Unknown
5:35 PM 95.0 °F 97.0 °F 64.4 °F 36% 30.00 in 10.0 mi Calm Calm - N/A   Unknown
5:55 PM 95.0 °F 97.0 °F 64.4 °F 36% 30.00 in 10.0 mi Calm Calm - N/A   Unknown
6:15 PM 95.0 °F 98.5 °F 66.2 °F 39% 29.99 in 10.0 mi Calm Calm - N/A   Unknown
6:35 PM 93.2 °F 96.2 °F 66.2 °F 41% 29.99 in 10.0 mi Calm Calm - N/A   Unknown
6:55 PM 91.4 °F 95.4 °F 68.0 °F 46% 29.99 in 10.0 mi Calm Calm - N/A   Unknown
7:15 PM 89.6 °F 93.4 °F 68.0 °F 49% 29.99 in 10.0 mi Calm Calm - N/A   Unknown
7:35 PM 87.8 °F 91.4 °F 68.0 °F 52% 29.99 in 10.0 mi Calm Calm - N/A   Unknown
7:55 PM 86.0 °F 89.4 °F 68.0 °F 55% 30.00 in 10.0 mi Calm Calm - N/A   Unknown
8:15 PM 84.2 °F 88.4 °F 69.8 °F 62% 30.00 in 10.0 mi Calm Calm - N/A   Unknown
8:35 PM 82.4 °F 86.3 °F 69.8 °F 66% 30.00 in 10.0 mi Calm Calm - N/A   Unknown
8:55 PM 80.6 °F 83.2 °F 68.0 °F 65% 30.00 in 8.0 mi Calm Calm - N/A   Unknown
9:15 PM 78.8 °F - 69.8 °F 74% 30.01 in 10.0 mi Calm Calm - N/A   Unknown
9:35 PM 80.6 °F 83.9 °F 69.8 °F 70% 30.01 in 10.0 mi Calm Calm - N/A   Unknown
9:55 PM 78.8 °F - 69.8 °F 74% 30.01 in 10.0 mi Calm Calm - N/A   Unknown
10:15 PM 77.0 °F - 69.8 °F 78% 30.01 in 10.0 mi Calm Calm - N/A   Unknown
10:35 PM 77.0 °F - 69.8 °F 78% 30.01 in 10.0 mi Calm Calm - N/A   Unknown
10:55 PM 77.0 °F - 71.6 °F 83% 30.01 in 10.0 mi Calm Calm - N/A   Unknown
11:15 PM 77.0 °F - 71.6 °F 83% 30.01 in 10.0 mi Calm Calm - N/A   Unknown
11:35 PM 75.2 °F - 73.4 °F 94% 30.01 in 10.0 mi Calm Calm - N/A   Unknown
11:55 PM 75.2 °F - 71.6 °F 89% 30.01 in 10.0 mi Calm Calm - N/A   Unknown